| time (UTC) | temp F | wind direction | speed MPH | gust MPH | rain 1hr in | rain 24hr in | rain mn in | humidity % | barometer mb |
| 20260831181516 | 77 | 248 | 1.0 | 4.0 | 0.00 | 0.00 | 0.00 | 36 | 1019.8 |
| 20260831180516 | 77 | 270 | 1.0 | 3.0 | 0.00 | 0.00 | 0.00 | 36 | 1019.9 |
| 20260831175516 | 77 | 270 | 1.0 | 3.0 | 0.00 | 0.00 | 0.00 | 36 | 1020.1 |
| 20260831174516 | 76 | 270 | 1.0 | 3.0 | 0.00 | 0.00 | 0.00 | 35 | 1020.0 |
| 20260831173521 | 75 | 248 | 1.0 | 5.0 | 0.00 | 0.00 | 0.00 | 37 | 1019.8 |
| 20260831172516 | 75 | 0.0 | 3.0 | 0.00 | 0.00 | 0.00 | 40 | 1020.0 | |
| 20260831171516 | 73 | 0.0 | 2.0 | 0.00 | 0.00 | 0.00 | 41 | 1019.8 | |
| 20260831170516 | 72 | 248 | 3.0 | 6.0 | 0.00 | 0.00 | 0.00 | 41 | 1019.7 |
| 20260831165516 | 73 | 248 | 2.0 | 4.0 | 0.00 | 0.00 | 0.00 | 40 | 1019.6 |
| 20260831164517 | 73 | 248 | 2.0 | 5.0 | 0.00 | 0.00 | 0.00 | 39 | 1019.6 |
| 20260831163516 | 74 | 225 | 1.0 | 4.0 | 0.00 | 0.00 | 0.00 | 36 | 1019.9 |
| 20260831162516 | 74 | 0.0 | 0.0 | 0.00 | 0.00 | 0.00 | 38 | 1019.7 | |
| 20260831161516 | 72 | 0.0 | 0.0 | 0.00 | 0.00 | 0.00 | 40 | 1019.4 | |
| 20260831160516 | 71 | 248 | 2.0 | 6.0 | 0.00 | 0.00 | 0.00 | 42 | 1019.6 |
| 20260831155516 | 72 | 0.0 | 0.0 | 0.00 | 0.00 | 0.00 | 43 | 1019.5 | |
| 20260831154516 | 71 | 0.0 | 0.0 | 0.00 | 0.00 | 0.00 | 41 | 1019.4 | |
| 20260831153516 | 71 | 0.0 | 0.0 | 0.00 | 0.00 | 0.00 | 41 | 1019.7 | |
| 20260831152516 | 70 | 113 | 1.0 | 3.0 | 0.00 | 0.00 | 0.00 | 39 | 1019.7 |
| 20260831151516 | 68 | 135 | 3.0 | 6.0 | 0.00 | 0.00 | 0.00 | 41 | 1019.4 |
| 20260831150516 | 67 | 113 | 1.0 | 3.0 | 0.00 | 0.00 | 0.00 | 41 | 1019.4 |
| 20260831145516 | 66 | 113 | 5.0 | 11.0 | 0.00 | 0.00 | 0.00 | 41 | 1019.1 |
| 20260831144556 | 65 | 113 | 2.0 | 5.0 | 0.00 | 0.00 | 0.00 | 41 | 1019.0 |
| 20260831143516 | 64 | 113 | 1.0 | 3.0 | 0.00 | 0.00 | 0.00 | 44 | 1018.9 |
| 20260831142536 | 64 | 113 | 1.0 | 3.0 | 0.00 | 0.00 | 0.00 | 42 | 1019.5 |
| 20260831141516 | 65 | 135 | 5.0 | 11.0 | 0.00 | 0.00 | 0.00 | 39 | 1019.4 |
| 20260831140516 | 64 | 90 | 3.0 | 9.0 | 0.00 | 0.00 | 0.00 | 40 | 1019.4 |
| 20260831135516 | 64 | 0.0 | 1.0 | 0.00 | 0.00 | 0.00 | 40 | 1019.2 | |
| 20260831134516 | 64 | 135 | 3.0 | 7.0 | 0.00 | 0.00 | 0.00 | 36 | 1019.0 |
| 20260831133517 | 65 | 113 | 1.0 | 5.0 | 0.00 | 0.00 | 0.00 | 38 | 1018.9 |
| 20260831132516 | 64 | 113 | 6.0 | 16.0 | 0.00 | 0.00 | 0.00 | 34 | 1019.2 |
| 20260831131516 | 64 | 68 | 2.0 | 4.0 | 0.00 | 0.00 | 0.00 | 37 | 1019.2 |
| 20260831130516 | 65 | 113 | 6.0 | 12.0 | 0.00 | 0.00 | 0.00 | 36 | 1019.1 |
| 20260831125516 | 62 | 135 | 2.0 | 7.0 | 0.00 | 0.00 | 0.00 | 39 | 1018.8 |
| 20260831124516 | 62 | 135 | 1.0 | 2.0 | 0.00 | 0.00 | 0.00 | 42 | 1018.9 |
| 20260831123516 | 64 | 135 | 2.0 | 7.0 | 0.00 | 0.00 | 0.00 | 38 | 1019.2 |
| 20260831122516 | 63 | 113 | 2.0 | 7.0 | 0.00 | 0.00 | 0.00 | 40 | 1019.6 |
| 20260831121516 | 64 | 113 | 1.0 | 10.0 | 0.00 | 0.00 | 0.00 | 38 | 1019.7 |
| 20260831120516 | 64 | 113 | 2.0 | 9.0 | 0.00 | 0.00 | 0.00 | 38 | 1019.7 |
| 20260831115516 | 64 | 113 | 3.0 | 8.0 | 0.00 | 0.00 | 0.00 | 39 | 1019.4 |
| 20260831114516 | 65 | 113 | 6.0 | 10.0 | 0.00 | 0.01 | 0.00 | 37 | 1019.3 |
| 20260831113516 | 64 | 113 | 6.0 | 12.0 | 0.00 | 0.17 | 0.00 | 37 | 1019.4 |
| 20260831112516 | 63 | 135 | 6.0 | 9.0 | 0.00 | 0.17 | 0.00 | 40 | 1019.6 |
| 20260831111516 | 64 | 90 | 7.0 | 15.0 | 0.00 | 0.17 | 0.00 | 37 | 1019.7 |
| 20260831110516 | 65 | 68 | 3.0 | 6.0 | 0.00 | 0.17 | 0.00 | 37 | 1019.5 |
| 20260831105516 | 66 | 113 | 7.0 | 15.0 | 0.00 | 0.17 | 0.00 | 35 | 1019.8 |
| 20260831104516 | 66 | 90 | 8.0 | 14.0 | 0.00 | 0.17 | 0.00 | 35 | 1020.0 |
| 20260831103516 | 65 | 90 | 8.0 | 18.0 | 0.00 | 0.17 | 0.00 | 37 | 1019.8 |
| 20260831102516 | 65 | 113 | 6.0 | 14.0 | 0.00 | 0.17 | 0.00 | 38 | 1020.0 |
| 20260831101516 | 67 | 113 | 5.0 | 11.0 | 0.00 | 0.17 | 0.00 | 35 | 1020.1 |
| 20260831100516 | 67 | 113 | 10.0 | 17.0 | 0.00 | 0.17 | 0.00 | 35 | 1019.7 |
| 20260831095516 | 66 | 113 | 8.0 | 14.0 | 0.00 | 0.17 | 0.00 | 36 | 1019.5 |
| 20260831094516 | 65 | 113 | 7.0 | 13.0 | 0.00 | 0.17 | 0.00 | 39 | 1019.4 |
| 20260831093536 | 66 | 90 | 5.0 | 14.0 | 0.00 | 0.17 | 0.00 | 38 | 1019.4 |
| 20260831092516 | 66 | 90 | 5.0 | 12.0 | 0.00 | 0.17 | 0.00 | 37 | 1019.5 |
| 20260831091516 | 66 | 113 | 3.0 | 7.0 | 0.00 | 0.17 | 0.00 | 39 | 1019.3 |
| 20260831090516 | 65 | 90 | 3.0 | 7.0 | 0.00 | 0.17 | 0.00 | 40 | 1019.1 |
| 20260831085516 | 67 | 113 | 7.0 | 17.0 | 0.00 | 0.17 | 0.00 | 38 | 1019.7 |
| 20260831084516 | 66 | 90 | 4.0 | 9.0 | 0.00 | 0.17 | 0.00 | 38 | 1019.7 |
| 20260831083516 | 66 | 90 | 5.0 | 13.0 | 0.00 | 0.17 | 0.00 | 39 | 1019.3 |
| 20260831082516 | 66 | 90 | 3.0 | 6.0 | 0.00 | 0.17 | 0.00 | 39 | 1019.8 |
| 20260831081516 | 67 | 135 | 6.0 | 15.0 | 0.00 | 0.17 | 0.00 | 39 | 1020.0 |
| 20260831080516 | 65 | 113 | 6.0 | 15.0 | 0.00 | 0.17 | 0.00 | 38 | 1019.6 |
| 20260831075536 | 64 | 135 | 6.0 | 14.0 | 0.00 | 0.17 | 0.00 | 41 | 1020.0 |
| 20260831074516 | 65 | 135 | 5.0 | 9.0 | 0.00 | 0.17 | 0.00 | 40 | 1020.0 |
| 20260831073544 | 67 | 90 | 8.0 | 14.0 | 0.00 | 0.17 | 0.00 | 36 | 1020.3 |
| 20260831072516 | 66 | 113 | 8.0 | 15.0 | 0.00 | 0.17 | 0.00 | 37 | 1020.0 |
| 20260831071516 | 66 | 113 | 9.0 | 17.0 | 0.00 | 0.17 | 0.00 | 37 | 1020.0 |
| 20260831070516 | 66 | 113 | 9.0 | 19.0 | 0.00 | 0.17 | 0.00 | 38 | 1020.1 |
| 20260831065516 | 67 | 113 | 9.0 | 13.0 | 0.00 | 0.17 | 0.00 | 37 | 1020.0 |
| 20260831064516 | 67 | 113 | 8.0 | 15.0 | 0.00 | 0.17 | 0.00 | 36 | 1019.9 |
| 20260831063516 | 66 | 90 | 8.0 | 14.0 | 0.00 | 0.17 | 0.00 | 39 | 1019.6 |
| 20260831062536 | 65 | 113 | 10.0 | 16.0 | 0.00 | 0.17 | 0.00 | 42 | 1019.3 |
| 20260831061537 | 65 | 113 | 9.0 | 18.0 | 0.00 | 0.17 | 0.00 | 45 | 1019.5 |
| 20260831060516 | 66 | 113 | 6.0 | 12.0 | 0.00 | 0.17 | 0.00 | 42 | 1019.5 |
| 20260831055516 | 66 | 90 | 10.0 | 16.0 | 0.00 | 0.17 | 0.17 | 44 | 1019.3 |
| 20260831054536 | 66 | 113 | 9.0 | 16.0 | 0.00 | 0.17 | 0.17 | 45 | 1019.3 |
| 20260831053516 | 66 | 113 | 8.0 | 15.0 | 0.00 | 0.17 | 0.17 | 45 | 1019.4 |
| 20260831052517 | 65 | 90 | 9.0 | 15.0 | 0.00 | 0.17 | 0.17 | 49 | 1019.1 |
| 20260831051516 | 65 | 90 | 7.0 | 11.0 | 0.00 | 0.17 | 0.17 | 50 | 1019.1 |
| 20260831050516 | 65 | 113 | 9.0 | 15.0 | 0.00 | 0.17 | 0.17 | 51 | 1018.9 |
| 20260831045517 | 65 | 113 | 12.0 | 18.0 | 0.00 | 0.17 | 0.17 | 51 | 1018.7 |
| 20260831044516 | 65 | 113 | 12.0 | 21.0 | 0.00 | 0.17 | 0.17 | 54 | 1018.7 |
| 20260831043517 | 66 | 113 | 13.0 | 18.0 | 0.00 | 0.17 | 0.17 | 53 | 1018.7 |
| 20260831042516 | 66 | 113 | 11.0 | 17.0 | 0.00 | 0.17 | 0.17 | 53 | 1018.6 |
| 20260831041516 | 66 | 113 | 11.0 | 17.0 | 0.00 | 0.17 | 0.17 | 57 | 1018.7 |
| 20260831040537 | 65 | 113 | 10.0 | 17.0 | 0.00 | 0.17 | 0.17 | 58 | 1018.4 |
| 20260831035517 | 65 | 113 | 12.0 | 19.0 | 0.00 | 0.17 | 0.17 | 60 | 1018.2 |
| 20260831034517 | 65 | 113 | 10.0 | 17.0 | 0.00 | 0.17 | 0.17 | 60 | 1018.1 |
| 20260831033517 | 66 | 113 | 10.0 | 18.0 | 0.00 | 0.17 | 0.17 | 61 | 1018.0 |
| 20260831032536 | 66 | 113 | 12.0 | 18.0 | 0.00 | 0.17 | 0.17 | 61 | 1017.8 |
| 20260831031517 | 67 | 113 | 9.0 | 16.0 | 0.00 | 0.17 | 0.17 | 58 | 1017.7 |
| 20260831030517 | 67 | 113 | 9.0 | 14.0 | 0.00 | 0.17 | 0.17 | 59 | 1017.6 |
| 20260831025517 | 67 | 113 | 11.0 | 18.0 | 0.00 | 0.17 | 0.17 | 60 | 1017.1 |
| 20260831024516 | 67 | 113 | 12.0 | 16.0 | 0.00 | 0.17 | 0.17 | 63 | 1017.0 |
| 20260831023517 | 67 | 113 | 10.0 | 16.0 | 0.00 | 0.17 | 0.17 | 63 | 1017.0 |
| 20260831022516 | 68 | 113 | 11.0 | 15.0 | 0.00 | 0.17 | 0.17 | 63 | 1017.0 |
| 20260831021516 | 68 | 113 | 10.0 | 15.0 | 0.00 | 0.17 | 0.17 | 60 | 1016.9 |
| 20260831020516 | 69 | 113 | 7.0 | 13.0 | 0.00 | 0.17 | 0.17 | 62 | 1017.1 |
| 20260831015536 | 70 | 113 | 8.0 | 13.0 | 0.00 | 0.17 | 0.17 | 56 | 1017.1 |
| 20260831014537 | 71 | 135 | 3.0 | 11.0 | 0.00 | 0.17 | 0.17 | 58 | 1017.4 |
| 20260831013517 | 71 | 113 | 6.0 | 11.0 | 0.00 | 0.17 | 0.17 | 60 | 1017.1 |
| 20260831012517 | 72 | 113 | 9.0 | 13.0 | 0.00 | 0.17 | 0.17 | 58 | 1017.5 |
| 20260831011516 | 72 | 90 | 7.0 | 12.0 | 0.00 | 0.19 | 0.17 | 56 | 1017.4 |
| 20260831010516 | 73 | 113 | 8.0 | 13.0 | 0.00 | 0.20 | 0.17 | 56 | 1017.6 |
| 20260831005517 | 74 | 113 | 5.0 | 12.0 | 0.00 | 0.20 | 0.17 | 54 | 1017.5 |
| 20260831004516 | 74 | 113 | 4.0 | 9.0 | 0.00 | 0.20 | 0.17 | 49 | 1017.6 |
| 20260831003517 | 73 | 113 | 5.0 | 12.0 | 0.00 | 0.20 | 0.17 | 51 | 1017.2 |
| 20260831002517 | 74 | 113 | 5.0 | 14.0 | 0.00 | 0.20 | 0.17 | 50 | 1017.3 |
| 20260831001528 | 73 | 113 | 6.0 | 11.0 | 0.00 | 0.20 | 0.17 | 52 | 1017.3 |
| 20260831000516 | 74 | 113 | 8.0 | 14.0 | 0.00 | 0.20 | 0.17 | 50 | 1017.1 |
| 20260830235517 | 74 | 113 | 4.0 | 10.0 | 0.00 | 0.20 | 0.17 | 48 | 1018.9 |
| 20260830234517 | 75 | 158 | 4.0 | 8.0 | 0.00 | 0.20 | 0.17 | 47 | 1019.0 |
| 20260830233516 | 74 | 90 | 6.0 | 11.0 | 0.00 | 0.20 | 0.17 | 51 | 1019.1 |
| 20260830232516 | 73 | 113 | 4.0 | 8.0 | 0.00 | 0.20 | 0.17 | 55 | 1018.3 |
| 20260830231517 | 74 | 113 | 2.0 | 6.0 | 0.00 | 0.20 | 0.17 | 50 | 1018.3 |
| 20260830230516 | 75 | 0.0 | 4.0 | 0.00 | 0.20 | 0.17 | 50 | 1018.1 | |
| 20260830225517 | 75 | 135 | 1.0 | 4.0 | 0.00 | 0.20 | 0.17 | 47 | 1018.5 |
| 20260830224517 | 75 | 135 | 2.0 | 6.0 | 0.00 | 0.20 | 0.17 | 48 | 1018.4 |
| 20260830223516 | 76 | 135 | 3.0 | 6.0 | 0.00 | 0.20 | 0.17 | 49 | 1019.0 |
| 20260830222517 | 75 | 203 | 3.0 | 7.0 | 0.00 | 0.20 | 0.17 | 49 | 1018.1 |
| 20260830221516 | 75 | 158 | 4.0 | 8.0 | 0.00 | 0.20 | 0.17 | 49 | 1018.2 |
| 20260830220516 | 75 | 158 | 4.0 | 7.0 | 0.00 | 0.20 | 0.17 | 50 | 1018.3 |
| 20260830215536 | 75 | 135 | 1.0 | 4.0 | 0.00 | 0.20 | 0.17 | 49 | 1018.3 |
| 20260830214516 | 73 | 158 | 4.0 | 8.0 | 0.00 | 0.20 | 0.17 | 52 | 1018.4 |
| 20260830213516 | 73 | 158 | 2.0 | 5.0 | 0.00 | 0.20 | 0.17 | 54 | 1018.4 |
| 20260830212516 | 73 | 158 | 3.0 | 6.0 | 0.00 | 0.20 | 0.17 | 53 | 1018.7 |
| 20260830211517 | 73 | 0.0 | 0.0 | 0.00 | 0.20 | 0.17 | 57 | 1018.9 | |
| 20260830210517 | 72 | 0.0 | 0.0 | 0.00 | 0.20 | 0.17 | 59 | 1018.7 | |
| 20260830205657 | 72 | 0.0 | 2.0 | 0.00 | 0.20 | 0.17 | 57 | 1019.0 | |
| 20260830204517 | 72 | 315 | 2.0 | 4.0 | 0.00 | 0.20 | 0.17 | 59 | 1019.1 |
| 20260830203516 | 74 | 315 | 4.0 | 9.0 | 0.00 | 0.20 | 0.17 | 58 | 1019.6 |
| 20260830202516 | 74 | 315 | 4.0 | 7.0 | 0.00 | 0.20 | 0.17 | 52 | 1019.2 |
| 20260830201516 | 73 | 315 | 6.0 | 10.0 | 0.00 | 0.20 | 0.17 | 54 | 1018.9 |
| 20260830200517 | 74 | 315 | 6.0 | 12.0 | 0.00 | 0.20 | 0.17 | 54 | 1019.3 |
| 20260830195517 | 76 | 338 | 5.0 | 10.0 | 0.00 | 0.20 | 0.17 | 52 | 1019.7 |
| 20260830194517 | 77 | 293 | 2.0 | 6.0 | 0.00 | 0.20 | 0.17 | 48 | 1020.1 |
| 20260830193517 | 76 | 315 | 4.0 | 9.0 | 0.00 | 0.20 | 0.17 | 46 | 1019.7 |
| 20260830192516 | 76 | 248 | 4.0 | 8.0 | 0.00 | 0.20 | 0.17 | 48 | 1020.3 |
| 20260830191516 | 75 | 270 | 3.0 | 6.0 | 0.00 | 0.20 | 0.17 | 51 | 1020.2 |
| 20260830190516 | 75 | 315 | 3.0 | 9.0 | 0.00 | 0.20 | 0.17 | 53 | 1020.3 |
| 20260830185557 | 74 | 315 | 2.0 | 4.0 | 0.00 | 0.20 | 0.17 | 53 | 1020.1 |
| 20260830184516 | 74 | 315 | 1.0 | 5.0 | 0.00 | 0.20 | 0.17 | 54 | 1020.2 |
| 20260830183516 | 73 | 315 | 2.0 | 6.0 | 0.00 | 0.20 | 0.17 | 57 | 1020.3 |
| 20260830182516 | 73 | 315 | 3.0 | 7.0 | 0.00 | 0.20 | 0.17 | 55 | 1020.8 |